Valladolid Airport, Spain

4:17 PM CEST on July 24, 2017 (GMT +0200)
Villanubla

Weather History for LEVD - June, 2013

Change the Weather History Date:

Wednesday, June 12, 2013

  Actual Average Record
Temperature  
Mean Temperature 66 °F -  
Max Temperature 82 °F - - ()
Min Temperature 51 °F - - ()
Cooling Degree Days 2    
Growing Degree Days 16 (Base 50)    
Moisture  
Dew Point 56 °F    
Average Humidity 60    
Maximum Humidity 100    
Minimum Humidity 37    
Precipitation  
Precipitation 0.00 in - - ()
Sea Level Pressure  
Sea Level Pressure 30.20 in    
Wind  
Wind Speed 5 mph ()    
Max Wind Speed 9 mph    
Max Gust Speed -    
Visibility 6.2 miles    
Events      
T = Trace of Precipitation, MM = Missing Value Source: Averaged Metar Reports

Daily Weather History Graph

Daily Weather History Graph

Search for Another Location

Airport or City:

Trip Planner

Search our weather history database for the weather conditions in past years. The results will help you decide how hot, cold, wet, or windy it might be!

Date:

Astronomy

Jun. 12, 2013 Rise Set
Actual Time 6:44 AM CEST 9:54 PM CEST
Civil Twilight 6:10 AM CEST 10:28 PM CEST
Nautical Twilight 5:26 AM CEST 11:12 PM CEST
Astronomical Twilight 4:34 AM CEST 12:04 AM CEST
Moon 10:12 AM CEST (6/12) No Moon Set
Length of Visible Light 16h 18m
Length of Day
15h 10m
Waxing Crescent, 12% of the Moon is Illuminated
Jun 12
Waxing Crescent
Jun 16
First Quarter
Jun 23
Full
Jun 30
Last Quarter
Jul 8
New

Hourly Weather History & Observations

Time (CEST) Temp. Heat Index Dew Point Humidity Pressure Visibility Wind Dir Wind Speed Gust Speed Precip Events Conditions
7:00 AM 51.8 °F - 51.8 °F 100% 30.21 in - SSW 3.5 mph - N/A   Clear
7:30 AM 53.6 °F - 51.8 °F 94% 30.21 in - SSW 2.3 mph - N/A   Clear
8:00 AM 55.4 °F - 53.6 °F 94% 30.24 in - SSW 3.5 mph - N/A   Clear
8:30 AM 57.2 °F - 55.4 °F 94% 30.24 in - SSW 3.5 mph - N/A   Clear
9:00 AM 60.8 °F - 57.2 °F 88% 30.24 in - SW 4.6 mph - N/A   Clear
9:30 AM 62.6 °F - 57.2 °F 82% 30.24 in - SW 6.9 mph - N/A   Clear
10:00 AM 64.4 °F - 57.2 °F 77% 30.24 in - WSW 5.8 mph - N/A   Clear
10:30 AM 66.2 °F - 59.0 °F 78% 30.24 in - SW 4.6 mph - N/A   Clear
11:00 AM 68.0 °F - 59.0 °F 73% 30.24 in - SW 5.8 mph - N/A   Clear
11:30 AM 69.8 °F - 57.2 °F 64% 30.24 in - WSW 5.8 mph - N/A   Clear
12:00 PM 69.8 °F - 59.0 °F 68% 30.24 in - SW 4.6 mph - N/A   Clear
12:30 PM 71.6 °F - 60.8 °F 69% 30.24 in - SSW 4.6 mph - N/A   Clear
1:00 PM 73.4 °F - 59.0 °F 61% 30.24 in - SSW 5.8 mph - N/A   Clear
1:30 PM 75.2 °F - 60.8 °F 61% 30.21 in - SW 4.6 mph - N/A   Clear
2:00 PM 77.0 °F - 59.0 °F 54% 30.21 in 6.2 mi WSW 6.9 mph - N/A   Partly Cloudy
2:30 PM 77.0 °F - 59.0 °F 54% 30.21 in 6.2 mi SSW 4.6 mph - N/A   Partly Cloudy
3:00 PM 78.8 °F - 57.2 °F 47% 30.21 in 6.2 mi WSW 6.9 mph - N/A   Partly Cloudy
3:30 PM 78.8 °F - 57.2 °F 47% 30.21 in 6.2 mi WSW 8.1 mph - N/A   Partly Cloudy
4:00 PM 78.8 °F - 59.0 °F 51% 30.18 in 6.2 mi WSW 9.2 mph - N/A   Partly Cloudy
4:30 PM 80.6 °F 80.5 °F 55.4 °F 42% 30.18 in 6.2 mi West 9.2 mph - N/A   Scattered Clouds
5:00 PM 80.6 °F 81.1 °F 59.0 °F 48% 30.18 in 6.2 mi WSW 8.1 mph - N/A   Scattered Clouds
5:30 PM 82.4 °F 82.0 °F 57.2 °F 42% 30.15 in 6.2 mi WSW 6.9 mph - N/A   Scattered Clouds
6:00 PM 82.4 °F 81.4 °F 53.6 °F 37% 30.15 in 6.2 mi SW 6.9 mph - N/A   Scattered Clouds
6:30 PM 82.4 °F 81.4 °F 53.6 °F 37% 30.15 in 6.2 mi WSW 5.8 mph - N/A   Scattered Clouds
7:00 PM 82.4 °F 81.4 °F 53.6 °F 37% 30.15 in 6.2 mi SW 5.8 mph - N/A   Scattered Clouds
7:30 PM 82.4 °F 82.0 °F 57.2 °F 42% 30.15 in 6.2 mi Variable 2.3 mph - N/A   Scattered Clouds
8:00 PM 80.6 °F 80.3 °F 53.6 °F 39% 30.12 in 6.2 mi West 9.2 mph - N/A   Scattered Clouds
8:30 PM 80.6 °F - 51.8 °F 37% 30.12 in 6.2 mi West 9.2 mph - N/A   Scattered Clouds
9:00 PM 78.8 °F - 53.6 °F 42% 30.15 in 6.2 mi West 8.1 mph - N/A   Partly Cloudy
9:30 PM 75.2 °F - 51.8 °F 44% 30.15 in 6.2 mi West 6.9 mph - N/A   Partly Cloudy